Time,TemperatureF,DewpointF,PressureIn,WindDirection,WindDirectionDegrees,WindSpeedMPH,WindSpeedGustMPH,Humidity,HourlyPrecipIn,Conditions,Clouds,dailyrainin,SoftwareType,DateUTC
2013-04-26 00:02:00,48.0,31.0,-100.00,South,184,0.0,1.0,52,0.00,,,-99.99,,2013-04-26 06:02:00,
2013-04-26 00:11:00,48.0,31.0,-100.00,South,179,1.0,2.0,52,0.00,,,-99.99,,2013-04-26 06:11:00,
2013-04-26 00:21:00,47.0,31.0,-100.00,South,174,2.0,3.0,53,0.00,,,-99.99,,2013-04-26 06:21:00,
2013-04-26 00:32:00,47.0,31.0,-100.00,South,174,2.0,3.0,53,0.00,,,-99.99,,2013-04-26 06:32:00,
2013-04-26 00:41:00,49.0,31.0,-100.00,North,11,3.0,5.0,50,0.00,,,-99.99,,2013-04-26 06:41:00,
2013-04-26 00:52:00,46.0,31.0,-100.00,WSW,253,0.0,1.0,57,0.00,,,-99.99,,2013-04-26 06:52:00,
2013-04-26 01:01:00,46.0,31.0,-100.00,WSW,253,0.0,1.0,57,0.00,,,-99.99,,2013-04-26 07:01:00,
2013-04-26 01:11:00,45.0,32.0,-100.00,WSW,237,1.0,2.0,60,0.00,,,-99.99,,2013-04-26 07:11:00,
2013-04-26 01:22:00,45.0,32.0,-100.00,WSW,258,1.0,2.0,60,0.00,,,-99.99,,2013-04-26 07:22:00,
2013-04-26 01:31:00,45.0,32.0,-100.00,WSW,258,1.0,2.0,60,0.00,,,-99.99,,2013-04-26 07:31:00,
2013-04-26 01:42:00,49.0,32.0,-100.00,North,7,5.0,8.0,52,0.00,,,-99.99,,2013-04-26 07:42:00,
2013-04-26 01:52:00,49.0,32.0,-100.00,NNE,16,4.0,7.0,51,0.00,,,-99.99,,2013-04-26 07:52:00,
2013-04-26 02:02:00,49.0,32.0,-100.00,NNE,16,4.0,7.0,51,0.00,,,-99.99,,2013-04-26 08:02:00,
2013-04-26 02:11:00,50.0,32.0,-100.00,NW,313,3.0,6.0,49,0.00,,,-99.99,,2013-04-26 08:11:00,
2013-04-26 02:21:00,50.0,33.0,-100.00,NNW,342,3.0,5.0,50,0.00,,,-99.99,,2013-04-26 08:21:00,
2013-04-26 02:31:00,50.0,33.0,-100.00,NNW,342,3.0,5.0,50,0.00,,,-99.99,,2013-04-26 08:31:00,
2013-04-26 02:42:00,49.0,32.0,-100.00,NNW,346,2.0,6.0,53,0.00,,,-99.99,,2013-04-26 08:42:00,
2013-04-26 02:52:00,48.0,32.0,-100.00,NNW,337,2.0,4.0,55,0.00,,,-99.99,,2013-04-26 08:52:00,
2013-04-26 03:01:00,48.0,32.0,-100.00,NNW,337,2.0,4.0,55,0.00,,,-99.99,,2013-04-26 09:01:00,
2013-04-26 03:11:00,48.0,32.0,-100.00,North,7,3.0,5.0,54,0.00,,,-99.99,,2013-04-26 09:11:00,
2013-04-26 03:21:00,47.0,32.0,-100.00,NNW,347,5.0,8.0,56,0.00,,,-99.99,,2013-04-26 09:21:00,
2013-04-26 03:32:00,47.0,32.0,-100.00,NNW,347,5.0,8.0,56,0.00,,,-99.99,,2013-04-26 09:32:00,
2013-04-26 03:42:00,46.0,32.0,-100.00,North,0,4.0,6.0,58,0.00,,,-99.99,,2013-04-26 09:42:00,
2013-04-26 03:53:00,46.0,32.0,-100.00,North,0,6.0,10.0,58,0.00,,,-99.99,,2013-04-26 09:53:00,
2013-04-26 04:02:00,46.0,32.0,-100.00,North,0,6.0,10.0,58,0.00,,,-99.99,,2013-04-26 10:02:00,
2013-04-26 04:12:00,46.0,32.0,-100.00,North,7,6.0,11.0,58,0.00,,,-99.99,,2013-04-26 10:12:00,
2013-04-26 04:22:00,47.0,32.0,-100.00,North,6,7.0,12.0,58,0.00,,,-99.99,,2013-04-26 10:22:00,
2013-04-26 04:32:00,47.0,32.0,-100.00,North,6,7.0,12.0,58,0.00,,,-99.99,,2013-04-26 10:32:00,
2013-04-26 04:42:00,47.0,32.0,-100.00,North,6,7.0,12.0,58,0.00,,,-99.99,,2013-04-26 10:42:00,
2013-04-26 04:52:00,44.0,32.0,-100.00,North,354,5.0,9.0,62,0.00,,,-99.99,,2013-04-26 10:52:00,
2013-04-26 05:02:00,44.0,32.0,-100.00,North,354,5.0,9.0,62,0.00,,,-99.99,,2013-04-26 11:02:00,
2013-04-26 05:11:00,45.0,33.0,-100.00,North,357,6.0,9.0,62,0.00,,,-99.99,,2013-04-26 11:11:00,
2013-04-26 05:22:00,44.0,32.0,-100.00,NNW,343,4.0,8.0,63,0.00,,,-99.99,,2013-04-26 11:22:00,
2013-04-26 05:32:00,44.0,32.0,-100.00,NNW,343,4.0,8.0,63,0.00,,,-99.99,,2013-04-26 11:32:00,
2013-04-26 05:41:00,44.0,33.0,-100.00,NNW,342,6.0,11.0,63,0.00,,,-99.99,,2013-04-26 11:41:00,
2013-04-26 05:52:00,44.0,32.0,-100.00,North,354,6.0,10.0,63,0.00,,,-99.99,,2013-04-26 11:52:00,
2013-04-26 06:01:00,44.0,32.0,-100.00,North,354,6.0,10.0,63,0.00,,,-99.99,,2013-04-26 12:01:00,
2013-04-26 06:11:00,44.0,32.0,-100.00,North,354,5.0,12.0,64,0.00,,,-99.99,,2013-04-26 12:11:00,
2013-04-26 06:21:00,44.0,32.0,-100.00,North,354,4.0,6.0,64,0.00,,,-99.99,,2013-04-26 12:21:00,
2013-04-26 06:32:00,44.0,32.0,-100.00,North,354,4.0,6.0,64,0.00,,,-99.99,,2013-04-26 12:32:00,
2013-04-26 06:41:00,44.0,32.0,-100.00,NNW,343,2.0,4.0,63,0.00,,,-99.99,,2013-04-26 12:41:00,
2013-04-26 06:52:00,43.0,33.0,-100.00,South,188,2.0,5.0,66,0.00,,,-99.99,,2013-04-26 12:52:00,
2013-04-26 07:01:00,43.0,33.0,-100.00,South,188,2.0,5.0,66,0.00,,,-99.99,,2013-04-26 13:01:00,
2013-04-26 07:11:00,42.0,32.0,-100.00,NW,322,3.0,7.0,69,0.00,,,-99.99,,2013-04-26 13:11:00,
2013-04-26 07:21:00,44.0,32.0,-100.00,NNW,342,6.0,11.0,62,0.00,,,-99.99,,2013-04-26 13:21:00,
2013-04-26 07:31:00,44.0,32.0,-100.00,NNW,342,6.0,11.0,62,0.00,,,-99.99,,2013-04-26 13:31:00,
2013-04-26 07:41:00,44.0,33.0,-100.00,NNW,339,5.0,11.0,64,0.00,,,-99.99,,2013-04-26 13:41:00,
2013-04-26 07:52:00,43.0,33.0,-100.00,NNW,340,4.0,7.0,67,0.00,,,-99.99,,2013-04-26 13:52:00,
2013-04-26 08:01:00,43.0,33.0,-100.00,NNW,340,4.0,7.0,67,0.00,,,-99.99,,2013-04-26 14:01:00,
2013-04-26 08:11:00,44.0,33.0,-100.00,NNW,336,4.0,7.0,65,0.00,,,-99.99,,2013-04-26 14:11:00,
2013-04-26 08:21:00,43.0,33.0,-100.00,NW,315,2.0,4.0,66,0.00,,,-99.99,,2013-04-26 14:21:00,
2013-04-26 08:31:00,43.0,33.0,-100.00,NW,315,2.0,4.0,66,0.00,,,-99.99,,2013-04-26 14:31:00,
2013-04-26 08:41:00,45.0,33.0,-100.00,NNW,340,3.0,6.0,64,0.00,,,-99.99,,2013-04-26 14:41:00,
2013-04-26 08:52:00,45.0,34.0,-100.00,NNW,339,4.0,9.0,63,0.00,,,-99.99,,2013-04-26 14:52:00,
2013-04-26 09:01:00,45.0,34.0,-100.00,NNW,339,4.0,9.0,63,0.00,,,-99.99,,2013-04-26 15:01:00,
2013-04-26 09:11:00,48.0,34.0,-100.00,North,352,5.0,8.0,58,0.00,,,-99.99,,2013-04-26 15:11:00,
2013-04-26 09:21:00,50.0,35.0,-100.00,NNW,347,4.0,8.0,56,0.00,,,-99.99,,2013-04-26 15:21:00,
2013-04-26 09:33:00,50.0,35.0,-100.00,NNW,347,4.0,8.0,56,0.00,,,-99.99,,2013-04-26 15:33:00,
2013-04-26 09:42:00,52.0,35.0,-100.00,NNW,343,2.0,4.0,53,0.00,,,-99.99,,2013-04-26 15:42:00,
2013-04-26 09:53:00,54.0,36.0,-100.00,NNW,343,1.0,2.0,50,0.00,,,-99.99,,2013-04-26 15:53:00,
2013-04-26 10:03:00,54.0,36.0,-100.00,NNW,343,1.0,2.0,50,0.00,,,-99.99,,2013-04-26 16:03:00,
2013-04-26 10:12:00,55.0,36.0,-100.00,NE,35,2.0,3.0,48,0.00,,,-99.99,,2013-04-26 16:12:00,
2013-04-26 10:23:00,56.0,36.0,-100.00,NNE,20,2.0,4.0,47,0.00,,,-99.99,,2013-04-26 16:23:00,
2013-04-26 10:32:00,56.0,36.0,-100.00,NNE,20,2.0,4.0,47,0.00,,,-99.99,,2013-04-26 16:32:00,
2013-04-26 10:42:00,58.0,36.0,-100.00,NNW,347,2.0,5.0,43,0.00,,,-99.99,,2013-04-26 16:42:00,
2013-04-26 10:52:00,60.0,37.0,-100.00,NW,313,1.0,2.0,42,0.00,,,-99.99,,2013-04-26 16:52:00,
2013-04-26 11:02:00,60.0,37.0,-100.00,NW,313,1.0,2.0,42,0.00,,,-99.99,,2013-04-26 17:02:00,
2013-04-26 11:11:00,63.0,37.0,-100.00,NW,311,1.0,2.0,38,0.00,,,-99.99,,2013-04-26 17:11:00,
2013-04-26 11:21:00,62.0,35.0,-100.00,SSE,158,5.0,7.0,36,0.00,,,-99.99,,2013-04-26 17:21:00,
2013-04-26 11:31:00,62.0,35.0,-100.00,SSE,158,5.0,7.0,36,0.00,,,-99.99,,2013-04-26 17:31:00,
2013-04-26 11:41:00,63.0,35.0,-100.00,SSE,161,4.0,6.0,36,0.00,,,-99.99,,2013-04-26 17:41:00,
2013-04-26 11:52:00,63.0,35.0,-100.00,SSE,161,4.0,7.0,34,0.00,,,-99.99,,2013-04-26 17:52:00,
2013-04-26 12:02:00,63.0,35.0,-100.00,SSE,161,4.0,7.0,34,0.00,,,-99.99,,2013-04-26 18:02:00,
2013-04-26 12:11:00,64.0,35.0,-100.00,SSE,157,4.0,7.0,34,0.00,,,-99.99,,2013-04-26 18:11:00,
2013-04-26 12:22:00,65.0,36.0,-100.00,SSE,167,4.0,7.0,34,0.00,,,-99.99,,2013-04-26 18:22:00,
2013-04-26 12:33:00,65.0,36.0,-100.00,SSE,167,4.0,7.0,34,0.00,,,-99.99,,2013-04-26 18:33:00,
2013-04-26 12:41:00,66.0,35.0,-100.00,SSE,160,6.0,9.0,31,0.00,,,-99.99,,2013-04-26 18:41:00,
2013-04-26 12:52:00,66.0,36.0,-100.00,SSE,168,6.0,11.0,33,0.00,,,-99.99,,2013-04-26 18:52:00,
2013-04-26 13:01:00,66.0,36.0,-100.00,SSE,168,6.0,11.0,33,0.00,,,-99.99,,2013-04-26 19:01:00,
2013-04-26 13:11:00,68.0,37.0,-100.00,South,182,4.0,10.0,32,0.00,,,-99.99,,2013-04-26 19:11:00,
2013-04-26 13:22:00,68.0,35.0,-100.00,SSE,165,7.0,9.0,29,0.00,,,-99.99,,2013-04-26 19:22:00,
2013-04-26 13:31:00,68.0,35.0,-100.00,SSE,165,7.0,9.0,29,0.00,,,-99.99,,2013-04-26 19:31:00,
2013-04-26 13:41:00,68.0,36.0,-100.00,SSE,161,6.0,9.0,31,0.00,,,-99.99,,2013-04-26 19:41:00,
2013-04-26 13:52:00,69.0,36.0,-100.00,SSW,203,3.0,7.0,30,0.00,,,-99.99,,2013-04-26 19:52:00,
2013-04-26 14:02:00,69.0,36.0,-100.00,SSW,203,3.0,7.0,30,0.00,,,-99.99,,2013-04-26 20:02:00,
2013-04-26 14:11:00,69.0,35.0,-100.00,SSE,162,8.0,11.0,29,0.00,,,-99.99,,2013-04-26 20:11:00,
2013-04-26 14:21:00,69.0,36.0,-100.00,South,169,4.0,9.0,29,0.00,,,-99.99,,2013-04-26 20:21:00,
2013-04-26 14:32:00,69.0,36.0,-100.00,South,169,4.0,9.0,29,0.00,,,-99.99,,2013-04-26 20:32:00,
2013-04-26 14:41:00,70.0,37.0,-100.00,South,181,3.0,7.0,30,0.00,,,-99.99,,2013-04-26 20:41:00,
2013-04-26 14:52:00,70.0,37.0,-100.00,South,175,2.0,7.0,29,0.00,,,-99.99,,2013-04-26 20:52:00,
2013-04-26 15:01:00,70.0,37.0,-100.00,South,175,2.0,7.0,29,0.00,,,-99.99,,2013-04-26 21:01:00,
2013-04-26 15:11:00,71.0,36.0,-100.00,South,181,4.0,8.0,28,0.00,,,-99.99,,2013-04-26 21:11:00,
2013-04-26 15:21:00,71.0,35.0,-100.00,SSE,160,6.0,9.0,27,0.00,,,-99.99,,2013-04-26 21:21:00,
2013-04-26 15:32:00,71.0,35.0,-100.00,SSE,160,6.0,9.0,27,0.00,,,-99.99,,2013-04-26 21:32:00,
2013-04-26 15:42:00,72.0,36.0,-100.00,South,171,3.0,7.0,27,0.00,,,-99.99,,2013-04-26 21:42:00,
2013-04-26 15:53:00,70.0,35.0,-100.00,SSE,154,6.0,9.0,28,0.00,,,-99.99,,2013-04-26 21:53:00,
2013-04-26 16:02:00,70.0,35.0,-100.00,SSE,154,6.0,9.0,28,0.00,,,-99.99,,2013-04-26 22:02:00,
2013-04-26 16:12:00,70.0,36.0,-100.00,WSW,247,4.0,7.0,29,0.00,,,-99.99,,2013-04-26 22:12:00,
2013-04-26 16:22:00,70.0,37.0,-100.00,ESE,110,4.0,6.0,30,0.00,,,-99.99,,2013-04-26 22:22:00,
2013-04-26 16:32:00,70.0,37.0,-100.00,ESE,110,4.0,6.0,30,0.00,,,-99.99,,2013-04-26 22:32:00,
2013-04-26 16:42:00,71.0,37.0,-100.00,South,175,4.0,6.0,29,0.00,,,-99.99,,2013-04-26 22:42:00,
2013-04-26 16:52:00,70.0,36.0,-100.00,SSE,154,4.0,6.0,29,0.00,,,-99.99,,2013-04-26 22:52:00,
2013-04-26 17:01:00,70.0,36.0,-100.00,SSE,154,4.0,6.0,29,0.00,,,-99.99,,2013-04-26 23:01:00,
2013-04-26 17:11:00,71.0,38.0,-100.00,South,169,3.0,5.0,29,0.00,,,-99.99,,2013-04-26 23:11:00,
2013-04-26 17:21:00,71.0,38.0,-100.00,South,171,4.0,10.0,30,0.00,,,-99.99,,2013-04-26 23:21:00,
2013-04-26 17:32:00,71.0,38.0,-100.00,South,171,4.0,10.0,30,0.00,,,-99.99,,2013-04-26 23:32:00,
2013-04-26 17:42:00,70.0,37.0,-100.00,SSE,161,3.0,6.0,30,0.00,,,-99.99,,2013-04-26 23:42:00,
2013-04-26 17:52:00,71.0,38.0,-100.00,South,175,4.0,8.0,30,0.00,,,-99.99,,2013-04-26 23:52:00,
2013-04-26 18:01:00,71.0,38.0,-100.00,South,175,4.0,8.0,30,0.00,,,-99.99,,2013-04-27 00:01:00,
2013-04-26 18:11:00,71.0,37.0,-100.00,South,169,5.0,9.0,29,0.00,,,-99.99,,2013-04-27 00:11:00,
2013-04-26 18:21:00,71.0,37.0,-100.00,SSE,162,6.0,11.0,30,0.00,,,-99.99,,2013-04-27 00:21:00,
2013-04-26 18:32:00,71.0,37.0,-100.00,SSE,162,6.0,11.0,30,0.00,,,-99.99,,2013-04-27 00:32:00,
2013-04-26 18:41:00,71.0,38.0,-100.00,South,181,2.0,6.0,30,0.00,,,-99.99,,2013-04-27 00:41:00,
2013-04-26 18:52:00,70.0,38.0,-100.00,SSE,158,4.0,6.0,30,0.00,,,-99.99,,2013-04-27 00:52:00,
2013-04-26 19:01:00,70.0,38.0,-100.00,SSE,158,4.0,6.0,30,0.00,,,-99.99,,2013-04-27 01:01:00,
2013-04-26 19:11:00,70.0,37.0,-100.00,SSE,164,4.0,6.0,29,0.00,,,-99.99,,2013-04-27 01:11:00,
2013-04-26 19:21:00,70.0,37.0,-100.00,SSE,161,2.0,4.0,30,0.00,,,-99.99,,2013-04-27 01:21:00,
2013-04-26 19:31:00,70.0,37.0,-100.00,SSE,161,2.0,4.0,30,0.00,,,-99.99,,2013-04-27 01:31:00,
2013-04-26 19:41:00,70.0,35.0,-100.00,NNW,347,1.0,2.0,27,0.00,,,-99.99,,2013-04-27 01:41:00,
2013-04-26 19:52:00,69.0,41.0,-100.00,SSE,152,1.0,2.0,36,0.00,,,-99.99,,2013-04-27 01:52:00,
2013-04-26 20:01:00,69.0,41.0,-100.00,SSE,152,1.0,2.0,36,0.00,,,-99.99,,2013-04-27 02:01:00,
2013-04-26 20:11:00,69.0,37.0,-100.00,WSW,241,0.0,0.0,32,0.00,,,-99.99,,2013-04-27 02:11:00,
2013-04-26 20:22:00,68.0,40.0,-100.00,NW,309,1.0,1.0,36,0.00,,,-99.99,,2013-04-27 02:22:00,
2013-04-26 20:31:00,68.0,40.0,-100.00,NW,309,1.0,1.0,36,0.00,,,-99.99,,2013-04-27 02:31:00,
2013-04-26 20:42:00,66.0,41.0,-100.00,SSW,205,0.0,1.0,39,0.00,,,-99.99,,2013-04-27 02:42:00,
2013-04-26 20:52:00,64.0,43.0,-100.00,NW,315,0.0,1.0,46,0.00,,,-99.99,,2013-04-27 02:52:00,
2013-04-26 21:02:00,64.0,43.0,-100.00,NW,315,0.0,1.0,46,0.00,,,-99.99,,2013-04-27 03:02:00,
2013-04-26 21:11:00,64.0,43.0,-100.00,NW,315,0.0,1.0,46,0.00,,,-99.99,,2013-04-27 03:11:00,
2013-04-26 21:22:00,61.0,42.0,-100.00,SSE,150,1.0,3.0,48,0.00,,,-99.99,,2013-04-27 03:22:00,
2013-04-26 21:32:00,61.0,42.0,-100.00,SSE,150,1.0,3.0,48,0.00,,,-99.99,,2013-04-27 03:32:00,
2013-04-26 21:43:00,60.0,41.0,-100.00,SE,128,2.0,3.0,50,0.00,,,-99.99,,2013-04-27 03:43:00,
2013-04-26 21:53:00,58.0,41.0,-100.00,SSW,206,0.0,1.0,53,0.00,,,-99.99,,2013-04-27 03:53:00,
2013-04-26 22:02:00,58.0,41.0,-100.00,SSW,206,0.0,1.0,53,0.00,,,-99.99,,2013-04-27 04:02:00,
2013-04-26 22:12:00,58.0,41.0,-100.00,South,184,1.0,3.0,53,0.00,,,-99.99,,2013-04-27 04:12:00,
2013-04-26 22:22:00,57.0,40.0,-100.00,SSE,165,2.0,3.0,54,0.00,,,-99.99,,2013-04-27 04:22:00,
2013-04-26 22:33:00,57.0,40.0,-100.00,SSE,165,2.0,3.0,54,0.00,,,-99.99,,2013-04-27 04:33:00,
2013-04-26 22:42:00,56.0,40.0,-100.00,SSE,158,2.0,4.0,55,0.00,,,-99.99,,2013-04-27 04:42:00,
2013-04-26 22:53:00,56.0,40.0,-100.00,WSW,237,0.0,1.0,55,0.00,,,-99.99,,2013-04-27 04:53:00,
2013-04-26 23:02:00,56.0,40.0,-100.00,WSW,237,0.0,1.0,55,0.00,,,-99.99,,2013-04-27 05:02:00,
2013-04-26 23:12:00,55.0,40.0,-100.00,SW,223,1.0,1.0,56,0.00,,,-99.99,,2013-04-27 05:12:00,
2013-04-26 23:22:00,54.0,39.0,-100.00,South,169,1.0,2.0,56,0.00,,,-99.99,,2013-04-27 05:22:00,
2013-04-26 23:31:00,54.0,39.0,-100.00,South,169,1.0,2.0,56,0.00,,,-99.99,,2013-04-27 05:31:00,
2013-04-26 23:42:00,54.0,38.0,-100.00,SSE,158,2.0,3.0,56,0.00,,,-99.99,,2013-04-27 05:42:00,
2013-04-26 23:52:00,53.0,38.0,-100.00,SSE,165,2.0,3.0,57,0.00,,,-99.99,,2013-04-27 05:52:00,